Regional Weather Roundup
Issued by NWS

Home | Current Version | Previous Version | Text Only | Print | Product List | Glossary On
Versions: 1 2 3 4 5 6 7 8 9 10 11 12 13 14 15 16 17 18 19 20 21 22 23 24 25 26 27 28 29 30 31 32 33 34 35 36 37 38 39 40 41 42 43 44 45 46 47 48
000
ASUS42 KKEY 311910
RWRKEY

FLORIDA REGIONAL WEATHER ROUNDUP FOR THE FLORIDA KEYS
NATIONAL WEATHER SERVICE KEY WEST FLORIDA
300 PM EDT FRI JUL 31 2015

...SOUTH FLORIDA AND THE KEYS...

CITY           SKY/WX    TMP DP  RH WIND       PRES   REMARKS
FORT MYERS     MOSUNNY   89  74  60 SW13G21   29.99F HX  98
SW REGIONAL AP MOSUNNY   90  73  57 SW17      30.00F HX  98
NAPLES         SUNNY     91  76  61 SW13      30.00F HX 103
MIAMI          TSTM      74  67  78 E21G31    30.02F VSB 1
WEST KENDALL   CLOUDY    89  75  63 S7        30.02R THUNDER HX  99
HOMESTEAD      CLOUDY    92  75  58 S9        30.00F HX 102
MARATHON       MOSUNNY   92  80  68 SW7       30.02S HX 110
BOCA CHICA NAS PTSUNNY   91  78  65 S12       30.02F HX 106
KEY WEST INTL  MOSUNNY   90  78  68 S9        30.02F HX 104

...INTERNATIONAL WEATHER...

CITY           SKY/WX    TMP DP  RH WIND       PRES   REMARKS
NASSAU BAHAMAS PTSUNNY   88  73  62 S10       30.05F HX  96
CANCUN MEXICO  MOSUNNY   90  73  58 E12       30.01F HX  98
COZUMEL MEXICO MOSUNNY   84  77  79 W7        30.02F HX  94

ADJACENT COASTAL WATERS...

STATION/POSITION TIME  SKY/WX   TEMP    WIND        PRES    WAVE
                                AIR SEA DIR/SP/G            HT/PER
                 (UTC)          (F)     (DEG/KT/KT) (MB)    (FT/S)
PULASKI SHOAL LI 1800            86     190/  7/  7 1016.8F
SAND KEY         1850            86     180/  6/  8 1016.5F
SOMBRERO KEY     1900            87     190/ 11/ 12 1017.2F
LONG KEY         1800            86 90  200/ 11/ 13 1017.5F
MOLASSES REEF    1900            86 88  190/ 11/ 12 1016.4F
FOWEY ROCKS      NOT AVBL

$$


USA.gov is the U.S. government's official web portal to all federal, state and local government web resources and services.